TimeCST,TemperatureF,Dew PointF,Humidity,Sea Level PressureIn,VisibilityMPH,Wind Direction,Wind SpeedMPH,Gust SpeedMPH,PrecipitationIn,Events,Conditions,WindDirDegrees,DateUTC
12:15 AM,66.6,62.8,88,29.99,4.0,Calm,Calm,-,N/A,,Clear,0,2013-02-08 06:15:00
12:35 AM,66.0,62.2,88,29.99,4.0,Calm,Calm,-,N/A,,Clear,0,2013-02-08 06:35:00
12:55 AM,66.6,63.0,88,30.00,4.0,Calm,Calm,-,N/A,,Clear,0,2013-02-08 06:55:00
1:15 AM,65.8,62.1,88,30.01,4.0,Calm,Calm,-,N/A,,Clear,0,2013-02-08 07:15:00
1:35 AM,65.3,61.9,89,30.02,4.0,Calm,Calm,-,N/A,,Clear,0,2013-02-08 07:35:00
1:55 AM,65.3,61.9,89,30.02,3.0,WSW,4.6,-,N/A,,Scattered Clouds,250,2013-02-08 07:55:00
2:15 AM,65.7,62.4,89,30.02,3.0,West,3.5,-,N/A,,Mostly Cloudy,270,2013-02-08 08:15:00
2:35 AM,64.6,61.3,89,30.02,3.0,Calm,Calm,-,N/A,,Scattered Clouds,0,2013-02-08 08:35:00
2:55 AM,64.0,61.0,90,30.02,3.0,Calm,Calm,-,N/A,,Clear,0,2013-02-08 08:55:00
3:35 AM,67.1,63.9,89,30.04,2.0,NE,3.5,-,N/A,,Overcast,50,2013-02-08 09:35:00
3:55 AM,67.1,64.4,91,30.05,0.5,NNE,4.6,-,N/A,Rain,Light Rain,30,2013-02-08 09:55:00
4:15 AM,66.4,63.5,90,30.05,2.0,Calm,Calm,-,N/A,,Overcast,0,2013-02-08 10:15:00
4:35 AM,66.9,64.0,90,30.05,4.0,North,4.6,-,N/A,,Overcast,10,2013-02-08 10:35:00
4:55 AM,67.3,64.4,90,30.06,4.0,North,3.5,-,N/A,,Overcast,10,2013-02-08 10:55:00
5:15 AM,67.5,63.9,88,30.06,4.0,North,3.5,-,N/A,,Overcast,360,2013-02-08 11:15:00
5:35 AM,66.9,63.3,88,30.07,4.0,North,6.9,-,N/A,,Overcast,10,2013-02-08 11:35:00
5:55 AM,66.7,63.5,89,30.08,4.0,North,8.1,-,N/A,,Overcast,10,2013-02-08 11:55:00
6:15 AM,66.6,62.8,88,30.09,4.0,NNE,8.1,-,N/A,,Mostly Cloudy,20,2013-02-08 12:15:00
6:35 AM,66.2,61.2,84,30.10,5.0,NNE,8.1,-,0.15,,Haze,20,2013-02-08 12:35:00
6:55 AM,66.2,58.3,76,30.10,7.0,NNE,9.2,-,0.15,,Clear,20,2013-02-08 12:55:00
7:15 AM,65.5,56.3,72,30.11,7.0,NNE,13.8,18.4,N/A,,Scattered Clouds,20,2013-02-08 13:15:00
7:35 AM,65.3,55.0,69,30.12,7.0,NNE,12.7,-,N/A,,Mostly Cloudy,20,2013-02-08 13:35:00
7:55 AM,65.3,54.1,67,30.13,7.0,NNE,12.7,-,N/A,,Overcast,20,2013-02-08 13:55:00
8:15 AM,65.7,54.0,66,30.15,7.0,North,10.4,-,N/A,,Overcast,10,2013-02-08 14:15:00
8:35 AM,66.6,53.8,63,30.16,7.0,NNE,13.8,18.4,N/A,,Overcast,20,2013-02-08 14:35:00
8:55 AM,67.3,53.2,61,30.16,7.0,NNE,18.4,21.9,N/A,,Overcast,20,2013-02-08 14:55:00
9:15 AM,66.9,52.7,60,30.17,7.0,NNE,18.4,-,N/A,,Mostly Cloudy,20,2013-02-08 15:15:00
9:35 AM,67.3,52.3,59,30.18,7.0,NNE,15.0,18.4,N/A,,Scattered Clouds,20,2013-02-08 15:35:00
9:55 AM,68.2,52.3,57,30.18,7.0,NNE,17.3,-,N/A,,Clear,20,2013-02-08 15:55:00
10:15 AM,68.5,52.3,56,30.19,7.0,NE,12.7,-,N/A,,Clear,50,2013-02-08 16:15:00
10:35 AM,69.8,52.3,54,30.19,7.0,NE,10.4,18.4,N/A,,Mostly Cloudy,40,2013-02-08 16:35:00
10:55 AM,71.1,52.5,52,30.19,5.0,NE,9.2,-,N/A,,Haze,50,2013-02-08 16:55:00
11:15 AM,71.1,52.2,51,30.18,7.0,North,10.4,-,N/A,,Overcast,10,2013-02-08 17:15:00
11:35 AM,72.3,52.5,50,30.18,7.0,NNE,8.1,-,N/A,,Mostly Cloudy,20,2013-02-08 17:35:00
11:55 AM,72.3,52.2,49,30.18,5.0,NE,9.2,-,N/A,,Haze,50,2013-02-08 17:55:00
12:15 PM,73.8,52.2,47,30.16,7.0,NE,8.1,-,N/A,,Mostly Cloudy,40,2013-02-08 18:15:00
12:35 PM,74.8,52.0,45,30.15,7.0,NE,9.2,-,N/A,,Mostly Cloudy,40,2013-02-08 18:35:00
12:55 PM,74.1,52.2,46,30.15,7.0,NE,9.2,-,N/A,,Mostly Cloudy,40,2013-02-08 18:55:00
1:15 PM,75.9,52.0,43,30.13,7.0,North,6.9,-,N/A,,Scattered Clouds,10,2013-02-08 19:15:00
1:35 PM,75.4,51.8,44,30.12,7.0,NE,9.2,-,N/A,,Scattered Clouds,40,2013-02-08 19:35:00
1:55 PM,75.9,52.0,43,30.11,7.0,ENE,6.9,-,N/A,,Overcast,60,2013-02-08 19:55:00
2:15 PM,77.2,52.5,42,30.10,7.0,ENE,8.1,-,N/A,,Mostly Cloudy,60,2013-02-08 20:15:00
2:35 PM,77.9,52.3,41,30.09,7.0,ENE,9.2,-,N/A,,Mostly Cloudy,70,2013-02-08 20:35:00
2:55 PM,78.4,52.3,40,30.09,7.0,NE,6.9,-,N/A,,Mostly Cloudy,50,2013-02-08 20:55:00
3:15 PM,78.8,52.7,40,30.08,7.0,East,5.8,-,N/A,,Scattered Clouds,80,2013-02-08 21:15:00
3:35 PM,79.7,52.2,38,30.07,7.0,East,12.7,20.7,N/A,,Scattered Clouds,80,2013-02-08 21:35:00
3:55 PM,79.3,50.2,36,30.06,7.0,East,11.5,16.1,N/A,,Clear,100,2013-02-08 21:55:00
4:15 PM,78.1,50.2,38,30.06,10.0,East,12.7,-,N/A,,Clear,90,2013-02-08 22:15:00
4:35 PM,77.7,48.7,36,30.06,5.0,East,13.8,-,N/A,,Haze,80,2013-02-08 22:35:00
4:55 PM,77.0,48.4,36,30.06,7.0,ESE,13.8,18.4,N/A,,Clear,110,2013-02-08 22:55:00
5:15 PM,76.3,48.9,38,30.06,7.0,ENE,12.7,17.3,N/A,,Clear,70,2013-02-08 23:15:00
5:35 PM,75.4,47.5,37,30.06,7.0,East,12.7,-,N/A,,Clear,80,2013-02-08 23:35:00
5:55 PM,74.1,46.6,37,30.07,7.0,East,12.7,-,N/A,,Clear,80,2013-02-08 23:55:00
6:15 PM,72.5,45.7,38,30.07,7.0,ENE,10.4,-,N/A,,Clear,70,2013-02-09 00:15:00
6:35 PM,71.2,45.9,40,30.07,10.0,East,8.1,-,N/A,,Clear,80,2013-02-09 00:35:00
6:55 PM,69.1,50.7,52,30.08,7.0,East,11.5,-,N/A,,Clear,90,2013-02-09 00:55:00
7:15 PM,67.6,51.8,57,30.08,10.0,East,11.5,-,N/A,,Clear,90,2013-02-09 01:15:00
7:35 PM,66.6,52.9,61,30.08,7.0,East,12.7,-,N/A,,Clear,90,2013-02-09 01:35:00
7:55 PM,65.3,53.8,66,30.09,7.0,East,10.4,-,N/A,,Clear,90,2013-02-09 01:55:00
8:15 PM,64.4,54.5,70,30.09,7.0,East,10.4,-,N/A,,Clear,90,2013-02-09 02:15:00
8:35 PM,63.7,55.0,73,30.09,7.0,East,8.1,-,N/A,,Clear,80,2013-02-09 02:35:00
8:55 PM,63.1,55.4,76,30.09,7.0,East,6.9,-,N/A,,Clear,80,2013-02-09 02:55:00
9:15 PM,62.8,55.8,78,30.09,10.0,East,5.8,-,N/A,,Clear,80,2013-02-09 03:15:00
9:35 PM,62.6,55.8,78,30.09,7.0,ENE,3.5,-,N/A,,Clear,70,2013-02-09 03:35:00
9:55 PM,61.5,55.4,80,30.08,7.0,ENE,4.6,-,N/A,,Clear,70,2013-02-09 03:55:00
10:15 PM,61.2,55.6,82,30.08,7.0,ENE,3.5,-,N/A,,Clear,70,2013-02-09 04:15:00
10:35 PM,61.0,55.6,82,30.08,7.0,ENE,3.5,-,N/A,,Scattered Clouds,60,2013-02-09 04:35:00
10:55 PM,60.6,55.0,82,30.08,7.0,Calm,Calm,-,N/A,,Scattered Clouds,0,2013-02-09 04:55:00
11:15 PM,60.8,55.6,83,30.07,7.0,Calm,Calm,-,N/A,,Scattered Clouds,0,2013-02-09 05:15:00
11:35 PM,60.4,55.4,83,30.07,7.0,Calm,Calm,-,N/A,,Clear,0,2013-02-09 05:35:00
11:55 PM,59.2,54.0,83,30.07,7.0,North,3.5,-,N/A,,Clear,350,2013-02-09 05:55:00